Regional Weather Roundup
Issued by NWS Grand Forks, ND

Current Version |  Previous Version |  Text Only |  Print | Product List |  Glossary On
Versions: 1 2 3 4 5 6 7 8 9 10 11 12 13 14 15 16 17 18 19 20 21 22 23 24 25 26 27 28 29 30 31 32 33 34 35 36 37 38 39 40 41 42 43 44 45 46 47 48 49 50
800
ASUS43 KFGF 222310
RWRFGF
PRAIRIE TO PINES  WEATHER ROUNDUP
NATIONAL WEATHER SERVICE EASTERN NORTH DAKOTA/GRAND FORKS ND
600 PM CDT MON JUL 22 2024

 **SATELLITE DATA USED TO AUGMENT SKY COVER AT AUTOMATED STATIONS**
 *****  WEATHER ACROSS EASTERN NORTH DAKOTA  *****

CITY           SKY/WX    TMP DP  RH WIND       PRES   REMARKS
GRAND FORKS    PTSUNNY   81  68  64 SE3       29.96R HAZE
GRAND FRKS AFB FAIR      80  69  70 CALM      29.94R
GRAND FRKS NWS   N/A     79  69  71 S2        29.91R
DEVILS LAKE    PTSUNNY   79  69  71 S3        29.99R
FARGO          FAIR      86  63  45 NW5       29.95F
WAHPETON ARPT  FAIR      81  66  61 NE5       29.95F
$$

 ***** WEATHER ACROSS CENTRAL AND WESTERN NORTH DAKOTA  *****

CITY           SKY/WX    TMP DP  RH WIND       PRES   REMARKS
BISMARCK       PTSUNNY   85  64  49 SE6       30.00F
MINOT          FAIR      81  68  64 N6        29.99F HAZE
JAMESTOWN      FAIR      83  66  56 NW5       29.98F
MINOT AFB      MOSUNNY   83  67  58 N5        29.97F
GARRISON         N/A     83  66  56 S6        30.01F
WILLISTON      NOT AVBL
DICKINSON      FAIR      85  59  41 E8        30.03F
HETTINGER      FAIR      88  56  33 VRB5      30.04F
$$

 *****  OTHER AIRPORT OBSERVATIONS IN OUR AREA  *****

CITY           SKY/WX    TMP DP  RH WIND       PRES   REMARKS
WALHALLA       FAIR      68  68 100 NW6       29.99S FOG
GRAFTON AIRPOR PTSUNNY   73  70  88 NE6       29.97S
VALLEY CITY AR FAIR      82  68  61 W6        29.99S
CANDO          CLOUDY    77  77 100 MISG      30.00R THUNDER
CAVALIER APRT  LGT RAIN  66  66 100 CALM      29.98F VSB 1
GWINNER        MOSUNNY   82  70  65 CALM      29.97F
SHEYENNE NWR     N/A     84  68  58 S2        29.95S
ROLLA          FAIR      77  73  88 N14G20    30.01R
 ***** THE ABOVE OBSERVATIONS ARE NON NWS ARE NOT QUALITY
       CONTROLLED AND MAY MIS-REPORT RAIN FOR SNOW...
$$

  *****  WEATHER ACROSS NORTHERN MINNESOTA  *****

CITY           SKY/WX    TMP DP  RH WIND       PRES   REMARKS
FLAG ISLAND    PTSUNNY   70  63  78 NE8       30.01S
WARROAD        FAIR      73  68  83 NE6       30.01R
ROSEAU         FAIR      75  66  73 NE6       29.99S
HALLOCK        PTSUNNY   72  68  88 SE5       29.97F
THF RVR FALLS  FAIR      77  63  61 CALM      29.99S
BAUDETTE       PTSUNNY   77  67  71 N8        30.00S
WASKISH        FAIR      79  66  65 W3        29.99
CROOKSTON      FAIR      79  64  61 CALM      29.97S
STEPHEN NDAWN    N/A     70  68  94 VRB3        N/A
GREENBUSH NDAW   N/A     75  66  73 CALM        N/A
$$
  *****  WEATHER ACROSS CENTRAL AND WEST MINNESOTA  *****

CITY           SKY/WX    TMP DP  RH WIND       PRES   REMARKS
FOSSTON        FAIR      75  64  69 N3        30.00R
BEMIDJI        FAIR      74  61  62 N3        30.01S
PARK RAPIDS    FAIR      78  62  57 VRB6      29.98S
ELBOW LAKE     FAIR      82  62  52 N6        29.99S
WADENA           N/A     79  63  57 N7        29.98R
DETROIT LAKES  FAIR      79  64  61 N7        29.98S
MOORHEAD       FAIR      81  64  57 E3        29.96F
FERGUS FALLS   FAIR      81  70  69 NW7       29.98S
MORRIS MN      FAIR      82  66  57 N7        29.96S
STAPLES        FAIR      81  63  54 N7        29.98R
$$
  *****  WEATHER ELSEWHERE ACROSS MINNESOTA  *****

CITY           SKY/WX    TMP DP  RH WIND       PRES   REMARKS
DULUTH         CLOUDY    65  61  87 E7        29.99R
INTRNTL FALLS  FAIR      74  59  59 E3        30.00R
ELY            FAIR      70  55  60 NE5       30.01S
CLOQUET        DRIZZLE   64  63  94 E6        29.97S
WHEATON        FAIR      82  66  57 N3        29.98F
BRAINERD       PTSUNNY   76  62  62 N9        29.98R
HIBBING        PTSUNNY   73  56  54 N8        29.98F
ALEXANDRIA     FAIR      80  63  55 NW12G17   29.99F
SAINT CLOUD    FAIR      79  65  62 NE7       29.95S
MINNEAPOLIS    LGT RAIN  78  62  57 N28G40    29.95R
$$

  *****  WEATHER ACROSS SOUTH DAKOTA  *****

CITY           SKY/WX    TMP DP  RH WIND       PRES   REMARKS
SIOUX FALLS    FAIR      81  66  60 NW3       30.00F
BROOKINGS      FAIR      82  65  56 W9        30.00F
WATERTOWN      FAIR      80  66  62 NE3       30.00F
HURON          FAIR      83  62  49 W5        29.99F
SISSETON         N/A     85  62  46 N5        29.96F
ABERDEEN       FAIR      82  67  60 SW7       29.98F
MITCHELL       FAIR      83  65  54 W3        30.00F
PIERRE         FAIR      84  61  45 VRB7      30.00F
MOBRIDGE       FAIR      84  59  42 S6        29.99F
RAPID CITY     FAIR      89  53  29 N5        30.08F
$$

  *****  SOME WEATHER IN NEARBY STATES *****

CITY           SKY/WX    TMP DP  RH WIND       PRES   REMARKS
GLASGOW MT     FAIR      96  51  21 SW10      29.98F HX  93
GREAT FALLS MT FAIR      93  50  23 NE9       30.02F HAZE    HX  90
CHEYENNE WY    FAIR      77  43  29 N9        30.26F
SCOTTSBLUFF NE FAIR      86  52  30 E7        30.12F
OMAHA NE       FAIR      83  64  52 E5        29.99F
DES MOINES IA  CLOUDY    79  65  62 CALM      30.00F
DAVENPORT IA   PTSUNNY   78  65  63 E16G29    30.02R THUNDER
CHICAGO IL     CLOUDY    77  63  61 E9        29.97F
EAU CLAIRE WI  FAIR      80  67  64 SW7       29.93F
LA CROSSE WI   FAIR      84  63  49 SW8       29.94F
$$

  *****  SOME NATIONAL WEATHER *****

CITY           SKY/WX    TMP DP  RH WIND       PRES   REMARKS
LA GUARDIA NY  CLOUDY    81  69  67 SE13G21   30.01F
RALEIGH NC     PTSUNNY   78  74  87 SE9       30.00F
ATLANTA GA     PTSUNNY   85  69  58 S10       30.02R
NEW ORLEANS LA PTSUNNY   87  77  72 SW7       29.97S HX  99
OKLAHOMA CITY  FAIR      83  61  47 NE13      29.99F
ALBUQUERQUE NM FAIR      83  52  34 CALM      30.17S
SALT LAKE CITY FAIR      98  39  13 VRB7      30.01F HX  93
LOS ANGELES CA FAIR      73  58  59 W17       29.82F
BOISE ID       FAIR     105  46  13 MISG      29.88F HX 101
SEATTLE WA     CLOUDY    64  51  62 S6        30.15S
$$

*** WEATHER ACROSS MANITOBA...SASKATCHEWAN AND ONTARIO ***
                ***ONTARIO***

CITY           SKY/WX    TMP DP  RH WIND       PRES   REMARKS
GERALDTON      NOT AVBL
THUNDER BAY    LGT RAIN  64  61  88 E6        30.01S
SIOUX LOOKOUT  CLOUDY    64  55  72 E7        30.06S
TORONTO        PTSUNNY   77  63  61 E3        29.95F
BIG TROUT LK   PTSUNNY   61  46  59 SE5       30.20S
PICKLE LAKE    CLOUDY    64  48  55 E10       30.13R
DRYDEN         PTSUNNY   68  61  77 E10       30.03S
KENORA         CLOUDY    68  63  83 E10       30.02S
$$
                *** MANITOBA***

CITY           SKY/WX    TMP DP  RH WIND       PRES   REMARKS
BRANDON        PTSUNNY   79  68  69 NE13      30.00F SMOKE
DAUPHIN        PTSUNNY   73  66  78 N10       30.04S
ISLAND LAKE    SUNNY     68  48  49 E9G18     30.15F
PILOT MOUND      N/A     75  68  78 NE12G17     N/A
THE PAS        PTSUNNY   72  55  56 NE7G17    30.14S
THOMPSON       MOSUNNY   70  43  37 SE5       30.19F
WINNIPEG       PTSUNNY   75  64  69 NE7       29.98S
LYNN LAKE      MOSUNNY   70  50  49 VRB8      30.20F
CHURCHILL      PTSUNNY   75  46  35 W9        30.15F
GILLAM         PTSUNNY   70  48  46 NE5       30.21F
$$
                ***SASKATCHEWAN***

CITY           SKY/WX    TMP DP  RH WIND       PRES   REMARKS
ESTEVAN        MOSUNNY   82  70  65 NE12      30.02S HAZE
KINDERSLEY     PTSUNNY   77  68  73 E14       30.05F SMOKE
LLOYDMINSTER   PTSUNNY   81  55  41 E16       30.07F SMOKE
PRINCE ALBERT  PTSUNNY   73  61  64 E9        30.11F
REGINA         CLOUDY    82  68  61 E9        30.05S SMOKE
YORKTON        MOSUNNY   73  63  68 NE15      30.07S
N. BATTLEFORD  SUNNY     75  64  69 SE13G18   30.10F HAZE
LA RONGE       SUNNY     70  57  64 NE14      30.16S
SASKATOON      PTSUNNY   75  63  64 NE14      30.07F
SWIFT CURRENT  SUNNY     86  61  42 E12       30.04F HAZE
$$
NOTE: THESE ARE AUTOMATED STATIONS WITH LIMITED QUALITY CONTROL
      "FAIR" INDICATES FEW OR NO CLOUDS BELOW 12,000 FEET WITH NO
      SIGNIFICANT WEATHER AND/OR OBSTRUCTIONS TO VISIBILITY.
      SKY/WX - SKY CONDITION AND SIGNIFICANT WEATHER.
      TMP - AIR TEMPERATURE.    DP   - DEWPOINT TEMPERATURE.
      RH  - RELATIVE HUMIDITY.  PRES - PRESSURE.
      HX  - HEAT INDEX.         WCI  - WIND CHILL INDEX.
$